Regional Weather Roundup
Issued by NWS

Home | Current Version | Previous Version | Graphics & Text | Print | Product List | Glossary On
Versions: 1 2 3 4 5 6 7 8 9 10 11 12 13 14 15 16 17 18 19 20 21 22 23 24 25 26 27 28 29 30 31 32 33 34 35 36 37 38 39 40 41 42 43 44 45 46 47 48 49 50
000
ASUS43 KBIS 260110
RWRND
NORTH DAKOTA REGIONAL WEATHER ROUNDUP
NATIONAL WEATHER SERVICE EASTERN NORTH DAKOTA/GRAND FORKS ND
800 PM CDT FRI MAY 25 2018

  NOTE: "FAIR" INDICATES FEW OR NO CLOUDS BELOW 12,000 FEET WITH NO
  SIGNIFICANT WEATHER AND/OR OBSTRUCTIONS TO VISIBILITY.

NDZ001>003-009>011-017-260200-
...NORTHWEST NORTH DAKOTA...

CITY           SKY/WX    TMP DP  RH WIND       PRES   REMARKS
WILLISTON      FAIR      84  46  26 W12G21    29.71F
MINOT          FAIR      86  43  22 W17G29    29.65F
MINOT AFB      FAIR      86  42  21 NW22G28   29.63S
$$

NDZ018>021-031>035-040>046-260200-
...SOUTHWEST NORTH DAKOTA...

CITY           SKY/WX    TMP DP  RH WIND       PRES   REMARKS
BISMARCK       FAIR      87  50  27 W12       29.70R
DICKINSON      FAIR      81  46  29 W16       29.76F
GARRISON         N/A     83  47  28 NW20      29.69S
HETTINGER      FAIR      78  48  34 W13       29.82S
$$

NDZ004>008-012>016-024-026-027-054-260200-
...NORTHEAST NORTH DAKOTA...

CITY           SKY/WX    TMP DP  RH WIND       PRES   REMARKS
GRAND FORKS    FAIR      89  48  24 W14       29.54S
GRAND FORKS AF FAIR      89  47  23 NW13G23   29.56R
DEVILS LAKE    FAIR      85  47  26 W18G26    29.62R
$$

NDZ022-023-025-028>030-036>039-047>053-260200-
...SOUTHEAST NORTH DAKOTA...

CITY           SKY/WX    TMP DP  RH WIND       PRES   REMARKS
JAMESTOWN      FAIR      84  52  33 W15       29.64S
FARGO          FAIR      86  54  33 N9G17     29.60R
WAHPETON       FAIR      88  37  16 W13       29.62S
$$



USA.gov is the U.S. government's official web portal to all federal, state and local government web resources and services.